TimeCST,TemperatureF,Dew PointF,Humidity,Sea Level PressureIn,VisibilityMPH,Wind Direction,Wind SpeedMPH,Gust SpeedMPH,PrecipitationIn,Events,Conditions,WindDirDegrees,DateUTC
12:15 AM,55.4,51.8,88,29.95,10.0,SSE,5.8,-,N/A,,Clear,150,2012-11-26 06:15:00
12:35 AM,53.6,51.8,94,29.95,10.0,SSE,6.9,-,N/A,,Clear,150,2012-11-26 06:35:00
12:55 AM,53.6,51.8,94,29.95,10.0,SE,5.8,-,N/A,,Clear,140,2012-11-26 06:55:00
1:15 AM,53.6,51.8,94,29.95,10.0,SE,6.9,-,N/A,,Clear,140,2012-11-26 07:15:00
1:35 AM,53.6,51.8,94,29.95,10.0,SE,6.9,-,N/A,,Clear,140,2012-11-26 07:35:00
1:55 AM,53.6,51.8,94,29.95,10.0,SE,5.8,-,N/A,,Clear,140,2012-11-26 07:55:00
2:15 AM,53.6,51.8,94,29.95,10.0,SE,5.8,-,N/A,,Clear,140,2012-11-26 08:15:00
2:35 AM,53.6,53.6,100,29.95,10.0,SE,4.6,-,N/A,,Clear,140,2012-11-26 08:35:00
2:55 AM,53.6,53.6,100,29.95,10.0,SE,5.8,-,N/A,,Clear,130,2012-11-26 08:55:00
3:15 AM,53.6,53.6,100,29.95,10.0,SE,5.8,-,N/A,,Scattered Clouds,140,2012-11-26 09:15:00
3:35 AM,53.6,53.6,100,29.95,10.0,SE,5.8,-,N/A,,Scattered Clouds,140,2012-11-26 09:35:00
3:55 AM,55.4,55.4,100,29.95,10.0,SSE,4.6,-,N/A,,Mostly Cloudy,150,2012-11-26 09:55:00
4:15 AM,57.2,55.4,94,29.94,10.0,SSE,5.8,-,N/A,,Overcast,150,2012-11-26 10:15:00
4:35 AM,59.0,57.2,94,29.94,10.0,SSE,8.1,-,N/A,,Overcast,150,2012-11-26 10:35:00
4:55 AM,59.0,59.0,100,29.94,10.0,SSE,8.1,-,N/A,,Overcast,160,2012-11-26 10:55:00
5:15 AM,60.8,59.0,94,29.94,10.0,SSE,9.2,-,N/A,,Overcast,150,2012-11-26 11:15:00
5:35 AM,60.8,59.0,94,29.95,10.0,SSE,6.9,-,N/A,,Overcast,160,2012-11-26 11:35:00
5:55 AM,60.8,59.0,94,29.95,10.0,SSE,6.9,-,N/A,,Overcast,150,2012-11-26 11:55:00
6:15 AM,60.8,59.0,94,29.95,7.0,SSE,6.9,-,N/A,,Overcast,160,2012-11-26 12:15:00
6:35 AM,60.8,60.8,100,29.95,7.0,SSE,6.9,-,N/A,,Overcast,150,2012-11-26 12:35:00
6:55 AM,60.8,60.8,100,29.96,7.0,SSE,6.9,-,N/A,,Overcast,150,2012-11-26 12:55:00
7:15 AM,62.6,60.8,94,29.96,7.0,SE,9.2,-,N/A,,Mostly Cloudy,140,2012-11-26 13:15:00
7:35 AM,62.6,60.8,94,29.96,7.0,SSE,6.9,-,N/A,,Overcast,150,2012-11-26 13:35:00
7:55 AM,62.6,60.8,94,29.97,7.0,SSE,6.9,-,N/A,,Overcast,160,2012-11-26 13:55:00
8:15 AM,62.6,60.8,94,29.97,7.0,SSE,6.9,-,N/A,,Overcast,150,2012-11-26 14:15:00
8:35 AM,62.6,62.6,100,29.98,7.0,South,5.8,-,N/A,,Overcast,180,2012-11-26 14:35:00
8:55 AM,64.4,62.6,94,29.99,10.0,SSE,5.8,-,N/A,,Overcast,160,2012-11-26 14:55:00
9:15 AM,64.4,62.6,94,30.00,10.0,South,9.2,-,N/A,,Overcast,190,2012-11-26 15:15:00
9:35 AM,66.2,62.6,88,30.00,10.0,South,8.1,-,N/A,,Overcast,180,2012-11-26 15:35:00
9:55 AM,66.2,62.6,88,30.00,10.0,South,8.1,-,N/A,,Overcast,190,2012-11-26 15:55:00
10:15 AM,68.0,62.6,83,30.00,10.0,South,8.1,-,N/A,,Overcast,180,2012-11-26 16:15:00
10:35 AM,68.0,62.6,83,29.99,10.0,South,5.8,-,N/A,,Overcast,180,2012-11-26 16:35:00
10:55 AM,69.8,62.6,78,29.98,10.0,South,10.4,-,N/A,,Overcast,190,2012-11-26 16:55:00
11:15 AM,69.8,62.6,78,29.97,10.0,South,8.1,-,N/A,,Overcast,170,2012-11-26 17:15:00
11:35 AM,71.6,60.8,69,29.96,10.0,South,11.5,-,N/A,,Mostly Cloudy,190,2012-11-26 17:35:00
11:55 AM,71.6,60.8,69,29.96,10.0,SW,8.1,-,N/A,,Mostly Cloudy,220,2012-11-26 17:55:00
12:15 PM,73.4,60.8,65,29.95,10.0,WSW,10.4,-,N/A,,Overcast,240,2012-11-26 18:15:00
12:35 PM,71.6,60.8,69,29.94,10.0,SW,9.2,-,N/A,,Mostly Cloudy,230,2012-11-26 18:35:00
12:55 PM,71.6,60.8,69,29.93,10.0,West,4.6,-,N/A,,Scattered Clouds,260,2012-11-26 18:55:00
1:15 PM,73.4,60.8,65,29.92,10.0,WSW,4.6,-,N/A,,Clear,240,2012-11-26 19:15:00
1:35 PM,75.2,60.8,61,29.92,10.0,WSW,8.1,-,N/A,,Clear,240,2012-11-26 19:35:00
1:55 PM,75.2,59.0,57,29.91,10.0,WSW,8.1,-,N/A,,Scattered Clouds,250,2012-11-26 19:55:00
2:15 PM,77.0,59.0,54,29.91,10.0,West,4.6,-,N/A,,Scattered Clouds,260,2012-11-26 20:15:00
2:35 PM,77.0,59.0,54,29.92,10.0,West,6.9,-,N/A,,Clear,260,2012-11-26 20:35:00
2:55 PM,75.2,59.0,57,29.92,10.0,West,5.8,-,N/A,,Clear,260,2012-11-26 20:55:00
3:15 PM,75.2,59.0,57,29.93,10.0,WSW,6.9,-,N/A,,Scattered Clouds,240,2012-11-26 21:15:00
3:35 PM,77.0,59.0,54,29.94,10.0,West,9.2,-,N/A,,Scattered Clouds,270,2012-11-26 21:35:00
3:55 PM,75.2,59.0,57,29.94,10.0,West,6.9,-,N/A,,Scattered Clouds,280,2012-11-26 21:55:00
4:15 PM,73.4,59.0,61,29.95,10.0,West,3.5,-,N/A,,Scattered Clouds,260,2012-11-26 22:15:00
4:35 PM,73.4,59.0,61,29.96,10.0,West,3.5,-,N/A,,Mostly Cloudy,260,2012-11-26 22:35:00
4:55 PM,73.4,59.0,61,29.98,10.0,West,4.6,-,N/A,,Mostly Cloudy,280,2012-11-26 22:55:00
5:15 PM,73.4,59.0,61,29.99,10.0,Calm,Calm,-,N/A,,Scattered Clouds,0,2012-11-26 23:15:00
5:35 PM,71.6,59.0,64,29.99,10.0,NNW,6.9,-,N/A,,Scattered Clouds,340,2012-11-26 23:35:00
5:55 PM,69.8,59.0,68,30.00,10.0,NNW,6.9,-,N/A,,Scattered Clouds,340,2012-11-26 23:55:00
6:15 PM,68.0,60.8,78,30.01,10.0,North,12.7,19.6,N/A,,Mostly Cloudy,10,2012-11-27 00:15:00
6:35 PM,66.2,60.8,83,30.02,7.0,North,12.7,24.2,N/A,,Scattered Clouds,10,2012-11-27 00:35:00
6:55 PM,66.2,60.8,83,30.04,7.0,NNE,9.2,-,N/A,,Scattered Clouds,20,2012-11-27 00:55:00
7:15 PM,64.4,60.8,88,30.06,7.0,NNW,11.5,-,N/A,,Scattered Clouds,340,2012-11-27 01:15:00
7:35 PM,64.4,60.8,88,30.07,7.0,NNW,11.5,-,N/A,,Overcast,330,2012-11-27 01:35:00
7:55 PM,62.6,53.6,72,30.08,10.0,WNW,16.1,-,N/A,,Overcast,300,2012-11-27 01:55:00
8:15 PM,59.0,50.0,72,30.09,10.0,NW,16.1,24.2,N/A,,Mostly Cloudy,320,2012-11-27 02:15:00
8:35 PM,59.0,50.0,72,30.11,10.0,NW,13.8,-,N/A,,Overcast,310,2012-11-27 02:35:00
8:55 PM,57.2,48.2,72,30.12,10.0,NW,15.0,18.4,N/A,,Overcast,310,2012-11-27 02:55:00
9:15 PM,55.4,46.4,72,30.13,10.0,NNW,12.7,20.7,N/A,,Overcast,330,2012-11-27 03:15:00
9:35 PM,53.6,46.4,77,30.13,10.0,NW,11.5,-,N/A,,Overcast,320,2012-11-27 03:35:00
9:55 PM,53.6,46.4,77,30.15,10.0,NW,12.7,-,N/A,,Overcast,310,2012-11-27 03:55:00
10:15 PM,51.8,44.6,76,30.16,10.0,NW,11.5,-,N/A,,Overcast,310,2012-11-27 04:15:00
10:35 PM,51.8,44.6,76,30.17,10.0,NW,15.0,-,N/A,,Overcast,320,2012-11-27 04:35:00
10:55 PM,51.8,44.6,76,30.17,10.0,NW,17.3,-,N/A,,Overcast,320,2012-11-27 04:55:00
11:15 PM,50.0,44.6,82,30.18,10.0,NW,13.8,18.4,N/A,,Overcast,320,2012-11-27 05:15:00
11:35 PM,50.0,44.6,82,30.19,10.0,NW,13.8,18.4,N/A,,Overcast,320,2012-11-27 05:35:00
11:55 PM,50.0,44.6,82,30.19,10.0,NNW,11.5,17.3,N/A,,Overcast,330,2012-11-27 05:55:00